Weather History for KSAW - November, 2012

Change the Weather History Date:

Tuesday, November 27, 2012

  Actual Average (KESC) Record (KESC)
Temperature  
Mean Temperature 18 °F -  
Max Temperature 27 °F 35 °F 50 °F (1990)
Min Temperature 11 °F 23 °F 1 °F (2014)
Degree Days  
Heating Degree Days 46    
Moisture  
Dew Point 12 °F    
Average Humidity 76    
Maximum Humidity 86    
Minimum Humidity 55    
Precipitation  
Precipitation 0.00 in - - ()
Sea Level Pressure  
Sea Level Pressure 30.12 in    
Wind  
Wind Speed 7 mph (WSW)    
Max Wind Speed 15 mph    
Max Gust Speed 16 mph    
Visibility 10 miles    
Events Snow    
Averages and records for this station are not official NWS values.
T = Trace of Precipitation, MM = Missing Value Source: NWS Daily Summary

Daily Weather History Graph

Daily Weather History Graph

Search for Another Location

Airport or City:

Trip Planner

Search our weather history database for the weather conditions in past years. The results will help you decide how hot, cold, wet, or windy it might be!

Date:

Astronomy

Nov. 27, 2012 Rise Set
Actual Time 8:07 AM EST 5:06 PM EST
Civil Twilight 7:34 AM EST 5:40 PM EST
Nautical Twilight 6:56 AM EST 6:17 PM EST
Astronomical Twilight 6:20 AM EST 6:53 PM EST
Moon 4:38 PM EST (11/27) 7:11 AM EST (11/27)
Length of Visible Light 10h 06m
Length of Day
8h 58m
Waxing Gibbous, 99% of the Moon is Illuminated
Nov 27
Waxing Gibbous
Nov 28
Full
Dec 6
Last Quarter
Dec 13
New
Dec 20
First Quarter

Hourly Weather History & Observations

Time (EST) Temp. Windchill Dew Point Humidity Pressure Visibility Wind Dir Wind Speed Gust Speed Precip Events Conditions
12:16 AM 14.5 °F 7.1 °F 8.8 °F 78% 30.23 in 10.0 mi West 4.6 mph - N/A Snow Light Snow
12:35 AM 13.8 °F 8.0 °F 7.9 °F 77% 30.23 in 10.0 mi West 3.5 mph - N/A   Mostly Cloudy
12:56 AM 12.9 °F 3.8 °F 6.8 °F 77% 30.23 in 10.0 mi WSW 5.8 mph - N/A   Clear
1:16 AM 12.9 °F 5.2 °F 6.8 °F 77% 30.23 in 10.0 mi WSW 4.6 mph - N/A   Mostly Cloudy
1:36 AM 12.6 °F 4.8 °F 6.6 °F 77% 30.23 in 10.0 mi WSW 4.6 mph - N/A   Mostly Cloudy
1:56 AM 11.7 °F 3.7 °F 5.7 °F 77% 30.22 in 10.0 mi WSW 4.6 mph - N/A   Scattered Clouds
2:15 AM 11.3 °F 3.3 °F 5.9 °F 79% 30.22 in 10.0 mi WSW 4.6 mph - N/A   Scattered Clouds
2:36 AM 11.1 °F 1.7 °F 5.9 °F 80% 30.22 in 10.0 mi West 5.8 mph - N/A   Mostly Cloudy
2:56 AM 11.3 °F 5.1 °F 6.4 °F 81% 30.21 in 10.0 mi WSW 3.5 mph - N/A   Overcast
3:15 AM 12.0 °F 1.5 °F 6.8 °F 80% 30.21 in 10.0 mi WSW 6.9 mph - N/A   Overcast
3:36 AM 12.0 °F 2.7 °F 6.8 °F 80% 30.21 in 10.0 mi WSW 5.8 mph - N/A   Overcast
3:56 AM 12.2 °F 0.7 °F 6.8 °F 79% 30.20 in 10.0 mi WSW 8.1 mph - N/A   Overcast
4:15 AM 12.9 °F 1.6 °F 7.5 °F 79% 30.19 in 10.0 mi WSW 8.1 mph - N/A   Overcast
4:36 AM 13.6 °F 3.5 °F 7.7 °F 77% 30.19 in 10.0 mi West 6.9 mph - N/A   Overcast
4:56 AM 14.0 °F 2.9 °F 7.7 °F 76% 30.18 in 10.0 mi WSW 8.1 mph - N/A   Overcast
5:15 AM 14.4 °F 4.3 °F 7.5 °F 74% 30.18 in 10.0 mi WSW 6.9 mph - N/A   Overcast
5:36 AM 14.5 °F 2.7 °F 7.7 °F 74% 30.17 in 10.0 mi SW 9.2 mph - N/A   Overcast
5:56 AM 14.5 °F 2.7 °F 7.3 °F 73% 30.17 in 10.0 mi SW 9.2 mph - N/A   Overcast
6:55 AM 14.0 °F 1.2 °F 6.8 °F 73% 30.14 in 10.0 mi SW 10.4 mph - N/A   Overcast
7:50 AM 14.0 °F 2.0 °F 6.8 °F 73% 30.14 in 10.0 mi SW 9.2 mph - N/A   Mostly Cloudy
8:50 AM 12.2 °F 0.7 °F 6.8 °F 79% 30.14 in 10.0 mi SSW 8.1 mph - N/A   Mostly Cloudy
9:50 AM 14.0 °F 1.2 °F 6.8 °F 73% 30.13 in 10.0 mi SW 10.4 mph - N/A   Overcast
11:50 AM 21.2 °F 8.3 °F 12.2 °F 68% 30.10 in 10.0 mi SW 13.8 mph - N/A   Overcast
11:55 AM 17.6 °F 5.7 °F 8.6 °F 68% 30.12 in 10.0 mi SW 10.4 mph - N/A   Scattered Clouds
12:55 PM 24.8 °F 14.0 °F 12.2 °F 59% 30.06 in 10.0 mi SSW 11.5 mph - N/A   Mostly Cloudy
1:48 PM 24.8 °F 12.4 °F 12.2 °F 59% 30.05 in 10.0 mi SSW 15.0 mph - N/A   Overcast
2:50 PM 26.6 °F 15.7 °F 12.2 °F 55% 30.03 in 10.0 mi SSW 12.7 mph - N/A   Overcast
3:50 PM 26.6 °F 15.7 °F 14.0 °F 59% 30.02 in 10.0 mi SSW 12.7 mph - N/A   Overcast
4:55 PM 26.6 °F 16.2 °F 14.0 °F 59% 30.02 in 10.0 mi SSW 11.5 mph - N/A   Overcast
5:50 PM 26.6 °F 16.8 °F 21.2 °F 80% 30.01 in 3.0 mi WSW 10.4 mph - N/A Snow Light Snow
6:50 PM 26.6 °F 17.5 °F 23.0 °F 86% 30.02 in 2.0 mi WSW 9.2 mph - N/A Snow Light Snow
7:50 PM 26.6 °F 17.5 °F 23.0 °F 86% 30.02 in 5.0 mi WSW 9.2 mph - N/A Snow Light Snow
8:50 PM 24.8 °F 15.3 °F 21.2 °F 86% 30.02 in 10.0 mi WSW 9.2 mph - N/A   Scattered Clouds
9:50 PM 24.8 °F 14.6 °F 21.2 °F 86% 30.02 in 10.0 mi WSW 10.4 mph - N/A   Mostly Cloudy
10:16 PM 24.8 °F 16.9 °F 20.7 °F 84% 30.02 in 10.0 mi West 6.9 mph - N/A   Scattered Clouds
10:36 PM 24.6 °F 16.7 °F 20.3 °F 84% 30.02 in 10.0 mi West 6.9 mph - N/A   Scattered Clouds
10:56 PM 24.8 °F 15.3 °F 19.9 °F 82% 30.02 in 10.0 mi West 9.2 mph - N/A   Mostly Cloudy
11:16 PM 24.6 °F 15.1 °F 19.4 °F 81% 30.02 in 10.0 mi West 9.2 mph 16.1 mph N/A   Mostly Cloudy
11:36 PM 24.4 °F 14.2 °F 19.6 °F 82% 30.02 in 10.0 mi West 10.4 mph - N/A   Mostly Cloudy
11:56 PM 25.0 °F 16.3 °F 19.6 °F 80% 30.02 in 10.0 mi West 8.1 mph - N/A   Mostly Cloudy